Location: Boston
(42.3580°N, 71.0600°W)
Time: 18:31:23
(UTC-05:00)

Envisat - Pass Details

Date: 16 October 2017
Orbit: 764 x 766 km, 98.2° (Epoch: 17 December)

Event Time Altitude Azimuth Distance (km) Brightness Sun altitude
Exits shadow 20:46:18 47° 323° (NW) 1,010 3.8 -31.2°
Drops below altitude 10° 20:50:01 10° 342° (NNW) 2,313 5.9 -31.8°
Sets 20:52:21 0° 345° (NNW) 3,244 6.7 -32.3°
